Regional Weather Roundup
Issued by NWS

Home | Current Version | Previous Version | Graphics & Text | Print | Product List | Glossary Off
Versions: 1 2 3 4 5 6 7 8 9 10 11 12 13 14 15 16 17 18 19 20 21 22 23 24 25 26 27 28 29 30 31 32 33 34 35 36 37 38 39 40 41 42 43 44 45 46 47 48 49 50

000
ASUS43 KTOP 241208
RWRKS

WEATHER ROUNDUP FOR KANSAS
NATIONAL WEATHER SERVICE GOODLAND KS
700 AM CDT SUN SEP 24 2017

NOTE:  "FAIR" INDICATES FEW OR NO CLOUDS BELOW 12,000 FEET WITH NO
SIGNIFICANT WEATHER AND/OR OBSTRUCTIONS TO VISIBILITY.

KSZ001>006-013>018-027>032-041>047-241300-
NORTHWEST KANSAS

CITY           SKY/WX    TMP DP  RH WIND       PRES   REMARKS
GOODLAND       LGT RAIN  50  50 100 NW13      29.93R
6HR MIN TEMP:  50; 6HR MAX TEMP:  61; 6HR PCP:  1.59;

HAYS           CLOUDY    72  63  73 S10       29.88R
HILL CITY      LGT RAIN  66  64  93 S10       29.88S
6HR MIN TEMP:  65; 6HR MAX TEMP:  69; 6HR PCP:  0.25;

RUSSELL        PTCLDY    71  63  75 S14       29.87R
6HR MIN TEMP:  71; 6HR MAX TEMP:  74;

$$

KSZ061>065-074>080-084>089-241300-
SOUTHWEST KANSAS

CITY           SKY/WX    TMP DP  RH WIND       PRES   REMARKS
DODGE CITY     CLOUDY    62  59  90 CALM      29.91R
6HR MIN TEMP:  62; 6HR MAX TEMP:  74; 6HR PCP:  0.01;

ELKHART          N/A     58  59 100 E5          N/A
GARDEN CITY    HVY RAIN  60  59  96 S6        29.92R FOG
6HR MIN TEMP:  60; 6HR MAX TEMP:  66; 6HR PCP:  1.03;

GREAT BEND     CLEAR     71  64  78 S13       29.89R
LIBERAL        LGT RAIN  62  61  96 N8        29.92R
PRATT          MOCLDY    70  62  77 S13       29.90R
6HR MIN TEMP:  69; 6HR MAX TEMP:  75;

$$

KSZ066>073-081>083-090>101-241300-
SOUTHEAST KANSAS

CITY           SKY/WX    TMP DP  RH WIND       PRES   REMARKS
CHANUTE        CLEAR     67  64  90 SE7       29.96R
6HR MIN TEMP:  67; 6HR MAX TEMP:  72;

COFFEYVILLE    CLEAR     68  65  90 CALM      29.94S
6HR MIN TEMP:  67; 6HR MAX TEMP:  72;

HUTCHINSON     PTCLDY    69  65  86 SE7       29.90R
6HR MIN TEMP:  69; 6HR MAX TEMP:  74;

MEDICINE LODGE   N/A     69  63  81 S7        29.89R
NEWTON         CLEAR     66  63  90 SE9       29.92S
PARSONS        CLEAR     68  64  87 CALM      29.96S
6HR MIN TEMP:  68; 6HR MAX TEMP:  74; 6HR PCP: TRACE;

WICHITA INTL   PTCLDY    70  66  87 SE10      29.90S
6HR MIN TEMP:  70; 6HR MAX TEMP:  75;

WICHITA JABRA  CLEAR     70  65  84 S10       29.91S
6HR MIN TEMP:  70; 6HR MAX TEMP:  71;

WICHITA MCCONL CLEAR     70  63  78 S9        29.91S
WINFIELD       CLEAR     70  66  87 SE8       29.93S
6HR MIN TEMP:  70; 6HR MAX TEMP:  74;

$$

KSZ007>012-019>026-033>040-048>060-102>105-241300-
NORTHEAST KANSAS

CITY           SKY/WX    TMP DP  RH WIND       PRES   REMARKS
CONCORDIA      PTCLDY    70  64  81 S13       29.89S
6HR MIN TEMP:  66; 6HR MAX TEMP:  74;

EMPORIA        CLEAR     68  63  84 S9        29.94R
6HR MIN TEMP:  67; 6HR MAX TEMP:  73;

LAWRENCE       CLEAR     68  66  93 E7        29.95R
6HR MIN TEMP:  66; 6HR MAX TEMP:  70;

MANHATTAN      PTCLDY    72  63  73 S3        29.91R
6HR MIN TEMP:  72; 6HR MAX TEMP:  75;

MARYSVILLE     CLOUDY    68  63  83 SE3       29.92R
OLATHE IND     CLEAR     70  64  81 S9        29.97S
6HR MIN TEMP:  69; 6HR MAX TEMP:  74;

OLATHE EXE     CLEAR     67  66  97 S3        29.97S
6HR MIN TEMP:  67; 6HR MAX TEMP:  73;

SALINA         PTCLDY    73  63  70 SE12      29.89S
6HR MIN TEMP:  72; 6HR MAX TEMP:  78;

TOPEKA BILLARD CLEAR     67  66  97 E6        29.93S
6HR MIN TEMP:  67; 6HR MAX TEMP:  70;

TOPEKA FORBES  CLEAR     69  65  86 SE7       29.94S
6HR MIN TEMP:  67; 6HR MAX TEMP:  71;

$$




USA.gov is the U.S. government's official web portal to all federal, state and local government web resources and services.